Location: Newark
(43.6583°N, 1.6617°E)
Time: 12:44:20
(UTC+00:00)

Vanguard 1 Rocket - Pass Details

Date: 28 August 2019
Orbit: 651 x 4225 km, 34.3° (Epoch: 19 September)

Event Time Altitude Azimuth Distance (km) Brightness Sun altitude
Rises 23:22:26 0° 219° (SW) 3,843 - -36.3°
Reaches altitude 10° 23:26:40 10° 196° (SSW) 2,447 - -36.4°
Maximum altitude 23:29:34 15° 163° (SSE) 1,926 - -36.5°
Drops below altitude 10° 23:32:06 10° 129° (SE) 2,095 - -36.6°
Sets 23:35:13 0° 103° (ESE) 2,958 - -36.6°
